Location: ?kun?ru
(16.3916°N, 80.8194°E)
Time: 15:33:45
(UTC+00:00)

SPOT 5 - Pass Details

Date: 19 May 2025
Orbit: 619 x 803 km, 98.0° (Epoch: 18 June)

Event Time Altitude Azimuth Distance (km) Brightness Sun altitude
Exits shadow 14:48:04 27° 38° (NE) 1,226 4.0 -23.9°
Drops below altitude 10° 14:50:31 10° 11° (N) 2,003 5.4 -24.4°
Sets 14:52:49 0° 2° (N) 2,898 6.4 -24.8°
